Location: Jastrz?bniki
(50.3667°N, 20.3833°E)
Time: 11:51:18
(UTC+00:00)

ADEOS II - Pass Details

Date: 05 August 2024
Orbit: 795 x 798 km, 98.7° (Epoch: 07 September)

Event Time Altitude Azimuth Distance (km) Brightness Sun altitude
Rises 00:30:22 0° 20° (NNE) 3,317 6.9 -18.8°
Reaches altitude 10° 00:32:52 10° 28° (NNE) 2,381 5.8 -18.6°
Maximum altitude 00:37:48 40° 97° (E) 1,159 3.1 -18.3°
Enters shadow 00:41:23 17° 160° (SSE) 1,899 3.7 -18.0°
